Location: Catenanuova
(37.5690°N, 14.6870°E)
Time: 01:07:17
(UTC+02:00)

Tiangong - Pass Details

Date: 31 May 2024
Orbit: 378 x 384 km, 41.5° (Epoch: 21 June)

Event Time Altitude Azimuth Distance (km) Brightness Sun altitude
Exits shadow 02:59:16 30° 40° (NE) 707 -0.2 -24.1°
Drops below altitude 10° 03:01:19 10° 71° (ENE) 1,383 1.3 -23.9°
Sets 03:03:28 0° 80° (E) 2,234 2.3 -23.7°
